Simultaneous Nadir Overpasses (SNOs) Predictions

Prediction of SNOs between AURA and NPP Satellite Orbit:

Table of predicted SNOs for the next 14.0 days since TLE Epoch: 9/27/2014
Index Date (AURA) Time (AURA) Lat,Lon (AURA) SZA (AURA ) Date (NPP) Time (NPP) Lat,Lon (NPP) SZA (NPP ) Distance(km) Time Diff (sec)
1 09/29/2014 14:13:31 75.65,-153.24 99.06 09/29/2014 14:13:23 75.65,-153.23 99.06 0.56 8
2 09/29/2014 15:02:38 -76.63, 17.52 82.01 09/29/2014 15:03:47 -76.64, 17.55 82.08 0.85 69
3 10/02/2014 05:41:12 -74.49, 151.88 78.79 10/02/2014 05:39:59 -74.49, 151.87 78.71 0.40 73
4 10/02/2014 06:30:17 75.55, -37.70 100.12 10/02/2014 06:30:21 75.54, -37.79 100.14 2.80 4
5 10/04/2014 21:57:59 -74.67, -91.91 78.01 10/04/2014 21:56:51 -74.67, -91.88 77.95 0.94 68
6 10/04/2014 22:47:05 75.67, 78.43 100.96 10/04/2014 22:47:14 75.66, 78.37 100.97 1.99 9
7 10/07/2014 14:14:57 -74.60, 23.68 76.98 10/07/2014 14:13:48 -74.60, 23.70 76.92 0.61 69
8 10/07/2014 15:04:04 75.56,-166.14 102.04 10/07/2014 15:04:12 75.54,-166.23 102.06 2.96 8
9 10/10/2014 06:33:37 -69.37, 130.03 70.96 10/10/2014 06:32:23 -69.48, 129.44 70.77 26.20 74
10 10/10/2014 07:21:04 75.65, -50.12 102.89 10/10/2014 07:21:04 75.65, -50.11 102.88 0.25 0




NCC Satellite Simultaneous Nadir Overpasses (SNOs) Prediction Service
